• Join FlightAware (Why Join?)
  • Login
  • US Flag 
06:19PM EST


 

Airport Tracker/Info


-or-


 

Live Flight TrackerFlight Track Log ✈ LAN935 ✈ 04-Jul-2013 ✈ SAME / MDZ - SCEL / SCL

Flight Track Log - Related Links

Times and Time Zones

All times are in EDT time to prevent confusion due to time zone crossing. See the LAN935 flight status page for this flight to view local times or setup timezone preferences in your user account.

Time Position Orientation Groundspeed Altitude Reporting Facility
EDT Latitude Longitude Course Direction KTS MPH feet Rate Location/Type
12:24PM -32.8240 -68.7930 North 166 191 2,400  Level FlightAware
12:24PM -32.8150 -68.7930 360° North 168 193 2,900 1,800 Climbing FlightAware
12:24PM -32.8010 -68.7870 20° North 186 214 3,300 1,400 Climbing FlightAware
12:25PM -32.7950 -68.7750 59° Northeast 202 232 3,600 2,167 Climbing FlightAware
12:25PM -32.7890 -68.7480 75° East 219 252 4,600 3,333 Climbing FlightAware
12:25PM -32.7760 -68.7170 63° Northeast 212 244 6,600 3,200 Climbing FlightAware
12:26PM -32.7540 -68.6920 44° Northeast 233 268 7,800 2,333 Climbing FlightAware
12:26PM -32.7340 -68.6690 44° Northeast 257 296 8,700 2,333 Climbing FlightAware
12:27PM -32.7050 -68.6370 43° Northeast 289 333 9,900 2,417 Climbing FlightAware
12:28PM -32.6640 -68.5890 45° Northeast 318 366 11,600 2,286 Climbing FlightAware
12:28PM -32.6220 -68.5410 44° Northeast 346 398 13,100 2,411 Climbing FlightAware
12:29PM -32.5920 -68.4050 75° East 401 461 16,100 2,263 Climbing FlightAware
12:30PM -32.6500 -68.3450 139° Southeast 421 484 17,400 2,175 Climbing FlightAware
12:31PM -32.7250 -68.3340 173° South 411 473 19,000 2,122 Climbing FlightAware
12:32PM -32.7960 -68.3910 214° Southwest 406 467 20,300 1,742 Climbing FlightAware
12:32PM -32.8050 -68.4110 242° Southwest 384 442 20,800 1,900 Climbing FlightAware
12:33PM -32.8200 -68.5110 260° West 381 438 22,200 2,325 Climbing FlightAware
12:33PM -32.8220 -68.5790 268° West 369 425 23,900 2,692 Climbing FlightAware
12:34PM -32.8260 -68.6630 267° West 362 417 25,700 2,571 Climbing FlightAware
12:35PM -32.8290 -68.7450 267° West 353 406 27,500 1,605 Climbing FlightAware
12:35PM -32.8330 -68.8230 266° West 343 395 28,000 357 Climbing FlightAware
12:36PM -32.8360 -68.8990 267° West 347 399 28,000  Level FlightAware
12:37PM -32.8400 -68.9840 267° West 350 403 28,000  Level FlightAware
12:37PM -32.8430 -69.0430 267° West 351 404 28,000  Level FlightAware
12:38PM -32.8470 -69.1390 267° West 350 403 28,000  Level FlightAware
12:39PM -32.8510 -69.2110 266° West 349 402 28,000  Level FlightAware
12:39PM -32.8530 -69.2740 268° West 349 402 28,000  Level FlightAware
12:40PM -32.8580 -69.3740 267° West 346 398 28,000  Level FlightAware
12:41PM -32.8610 -69.4560 267° West 343 395 28,000  Level FlightAware
12:42PM -32.8660 -69.5680 267° West 332 382 28,000 -61 Level FlightAware
12:42PM -32.8690 -69.6460 267° West 336 387 27,900 -71 Descending FlightAware
12:43PM -32.8720 -69.7180 267° West 337 388 27,900  Level FlightAware
12:44PM -32.8750 -69.7750 266° West 337 388 27,900  Level FlightAware
12:45PM -32.8780 -69.8500 267° West 337 388 27,900 -426 Level FlightAware
12:45PM -32.8810 -69.9570 268° West 26,900 -645 Descending FlightAware
12:46PM -32.8840 -70.0180 267° West 337 388 26,900 -1,750 Level FlightAware
12:47PM -32.8650 -70.1280 282° West 332 382 24,100 -2,313 Descending FlightAware
12:48PM -32.8500 -70.2170 281° West 330 380 23,200 -535 Descending FlightAware
12:49PM -32.8380 -70.2900 281° West 330 380 23,200 -2,000 Level FlightAware
12:49PM -32.8260 -70.3860 278° West 297 342 19,900 -2,345 Descending FlightAware
12:50PM -32.8160 -70.4640 279° West 291 335 18,900 -645 Descending FlightAware
12:51PM -32.8110 -70.5100 277° West 291 335 18,900  Level FlightAware
12:52PM -32.8050 -70.5600 278° West 291 335 18,900  Level FlightAware
12:52PM -32.7970 -70.6260 278° West 291 335 18,900  Level FlightAware
12:53PM -32.7910 -70.6720 279° West 291 335 18,900  Level FlightAware
12:54PM -32.7860 -70.7220 277° West 291 335 18,900 -1,354 Level FlightAware
12:56PM -32.8687 -70.7306 185° South  Level Estimated
12:57PM -32.9127 -70.7352 185° South  Level Estimated
12:58PM -32.9566 -70.7398 185° South  Level Estimated
12:59PM -33.0005 -70.7445 185° South  Level Estimated
01:00PM -33.0444 -70.7491 185° South  Level Estimated
01:01PM -33.0884 -70.7537 185° South  Level Estimated
01:02PM -33.1323 -70.7583 185° South  Level Estimated
01:03PM -33.1762 -70.7629 185° South  Level Estimated
01:03PM -33.1450 -70.8160 185° South 168 193 5,900  Level FlightAware
01:03PM -33.1650 -70.8150 178° South 167 192 5,500 -814 Descending FlightAware
01:04PM -33.1860 -70.8140 178° South 167 192 5,100 -906 Descending FlightAware
01:04PM -33.2090 -70.8120 176° South 160 184 4,700 -857 Descending FlightAware
01:05PM -33.2260 -70.8120 180° South 159 183 4,300 -800 Descending FlightAware
01:05PM -33.2480 -70.8100 176° South 158 182 3,900 -857 Descending FlightAware
01:05PM -33.2700 -70.8090 178° South 155 178 3,500 -453 Descending FlightAware
01:06PM -33.2860 -70.8080 177° South 155 178 3,500 -769 Level FlightAware
01:06PM -33.2930 -70.8080 180° South 139 160 3,000 -1,040 Descending FlightAware
01:07PM -33.3360 -70.8060 178° South 141 162 2,200 -762 Descending FlightAware
01:09PM -33.3920 -70.8020 177° South 139 160 -1,222 Descending FlightAware
01:12PM -33.3930 -70.7858 244° Southwest  Level Estimated